Find Kosmos-528

NORAD ID: 6262 Int'l Des: 1972-087 Owner: OKB10 Country: SU operational
LEOCIRCULAR

リアルタイム位置

3D地球を読み込み中...

Kosmos-528について

説明を読み込み中...

次回通過

Passes for default location (London). Set your location on the main map for personalized predictions.

高度履歴

Loading altitude history...

軌道要素

1 6262U 72087A 26104.64855544 -.00000030 00000-0 -75594-4 0 9993
2 6262 74.0353 227.1898 0065348 345.7359 119.0189 12.61615266461779
Epoch: Apr 14, 2026 • Age: 14 hours

現在のステータス

高度 1467.4 km
速度 7.11 km/s
衛星直下点 -4.00°S, 124.57°E
タイプ other

Most Searched